Regional Weather Roundup
Issued by NWS

Home | Current Version | Previous Version | Text Only | Print | Product List | Glossary On
Versions: 1 2 3 4 5 6 7 8 9 10 11 12 13 14 15 16 17 18 19 20 21 22 23 24 25 26 27
000
ASUS42 KTBW 271717
RWRFL
FLORIDA REGIONAL WEATHER ROUNDUP
NATIONAL WEATHER SERVICE TAMPA BAY RUSKIN FL
100 PM EDT THU APR 27 2017

NOTE: "FAIR" INDICATES FEW OR NO CLOUDS BELOW 12,000 FEET WITH NO
SIGNIFICANT WEATHER AND/OR OBSTRUCTIONS TO VISIBILITY.

FLZ001>010-012>015-112-114-115-271800-
PANHANDLE FLORIDA

CITY           SKY/WX    TMP DP  RH WIND       PRES   REMARKS
PENSACOLA      CLOUDY    82  73  74 S17G26    29.83S
PENSACOLA NAS  PTSUNNY   78  73  84 S16       29.83S FOG
MILTON NAS     PTSUNNY   82  75  79 SW16G26   29.83
CRESTVIEW      CLOUDY    81  72  74 S13       29.85S
DUKE FIELD     LGT RAIN  78  73  83 S20       29.84S FOG
VALPARAISO     CLOUDY    77  73  87 S15       29.85R FOG
MARY ESTHER    CLOUDY    77  70  78 S15       29.84R
PANAMA CITY    PTSUNNY   82  72  71 S25G31    29.87S
TYNDALL AFB    PTSUNNY   80  73  79 S18G25    29.88F
APALACHICOLA   PTSUNNY   81  75  82 S17       29.91F

STATION/POSITION SKY/WX   TEMP    WIND        PRES    WAVE   SWELL
                          AIR SEA DIR/SP/G            HT/PER HT/PER
                          (F)     (DEG/KT/KT) (MB)    (FT/S) (FT/S)
30.1N   87.6W              75 74  200/ 12/ 16 1010.1R   5/ 7   3/ 7
29.2N   88.2W              76 75  200/ 12/ 16 1010.5S
28.8N   86.0W              76 75  180/  8/ 10 1012.4F   4/ 6   3/ 6
PANAMA CITY BEAC           75 75  170/ 16/ 19 1011.8R
TOWER C                    74     190/ 11/ 12 1013.8R
28.5N   84.5W              74 74  160/ 16/ 19 1012.4R   4/ 6

$$
FLZ011-016>038-118-127-128-134-139-239-271800-
NORTH FLORIDA

CITY           SKY/WX    TMP DP  RH WIND       PRES   REMARKS
MARIANNA       CLOUDY    82  71  69 S20       29.84F
TALLAHASSEE    PTSUNNY   87  68  52 S16G24    29.89F
PERRY          PTSUNNY   85  68  56 SW20      29.94S
CROSS CITY     SUNNY     86  64  48 S16G26    29.92F
LAKE CITY      FAIR      86  63  45 SW13      29.92F
GAINESVILLE    SUNNY     89  60  37 S13G23    29.92F
WILLISTON      SUNNY     91  63  38 SE12      29.92F
PALATKA        FAIR      90  63  40 SW10G18   29.93F
MAYPORT NAS    MOSUNNY   84  62  47 SE16      29.93F
JACKSONVILLE   MOSUNNY   89  61  38 S13G23    29.91F
JAX NAS        MOSUNNY   87  61  41 S14       29.93F
FERNANDINA BEA FAIR      86  64  48 SE15G21   29.92S
ST AUGUSTINE   SUNNY     86  66  51 SE17      29.94F SMOKE
PALM COAST     SUNNY     90  61  37 SW10G17   29.94F

STATION/POSITION SKY/WX   TEMP    WIND        PRES    WAVE   SWELL
                          AIR SEA DIR/SP/G            HT/PER HT/PER
                          (F)     (DEG/KT/KT) (MB)    (FT/S) (FT/S)
SHELL POINT      NOT AVBL
KEATON BEACH               76     180/ 14/ 16 1013.7R
CEDAR KEY                  77     180/ 14/ 15 1014.0F
FERNANDINA                 84 75  140/ 10/ 15 1014.1F
30.7N   81.3W                 74                N/A     3/10   2/14
MAYPORT                    82 75  150/ 13/ 19 1013.9F
31.4N   80.9W              73 73  170/ 12/ 16 1013.3F   3/ 9   2/ 9
ST AUGUSTINE               77 76  140/ 15/ 16 1014.6F

$$
FLZ040-043>046-052-053-057-058-063-144-271800-
INTERIOR CENTRAL FLORIDA

CITY           SKY/WX    TMP DP  RH WIND       PRES   REMARKS
OCALA          SUNNY     90  61  37 S16       29.93F
THE VILLAGES     N/A     90  63  40 MISG      29.85F
LEESBURG       SUNNY     88  67  49 S10       29.95F
SANFORD        MOSUNNY   89  61  38 S10G17    29.95F
ORLANDO EXEC   SUNNY     87  64  46 S14       29.96F
ORLANDO INTL   MOSUNNY   87  63  44 S9        29.96F
KISSIMMEE      MOSUNNY   88  66  48 SE9       29.97F
WINTER HAVEN   SUNNY     90  60  36 S12       29.97F
LAKELAND       MOSUNNY   88  66  48 S10       29.97F
BARTOW         MOSUNNY   88  63  42 S9        29.96F
OKEECHOBEE     SUNNY     90  66  45 S13       29.98F

$$
FLZ041-047-054-059-064-141-147-271800-
EAST CENTRAL FLORIDA

CITY           SKY/WX    TMP DP  RH WIND       PRES   REMARKS
DAYTONA BEACH  MOSUNNY   88  60  38 VRB5      29.95F
DELAND         MOSUNNY   88  63  42 S15       29.95F
NEW SMYRNA BEA MOSUNNY   90  64  43 E12       29.97F
JFK SPACE CTR  MOSUNNY   87  68  52 SW6       29.95F
TITUSVILLE     MOSUNNY   91  64  40 SE13      29.97F
CAPE CANAVERAL SUNNY     88  72  59 S15       29.96F
PATRICK AFB    SUNNY     83  75  75 SE15      29.96F
MELBOURNE      MOSUNNY   87  74  64 SE14      29.97F HX  95
VERO BEACH     SUNNY     87  74  64 SE17G25   29.98F HX  95
FT PIERCE      MOSUNNY   87  75  67 SE20      29.97F HX  96
STUART         MOSUNNY   88  77  70 SE18G25   29.99F HX 100

STATION/POSITION SKY/WX   TEMP    WIND        PRES    WAVE   SWELL
                          AIR SEA DIR/SP/G            HT/PER HT/PER
                          (F)     (DEG/KT/KT) (MB)    (FT/S) (FT/S)
28.5N   80.2W              77 76  160/  6/  8 1016.5F   3/ 8   3/ 8
28.9N   78.5W              77 78  170/ 14/ 17 1016.1F   5/10   3/10
TRIDENT PIER               83 77  120/  8/ 10 1016.5F
28.4N   80.5W                 77                N/A     2/ 5
27.5N   80.2W                 78                N/A     3/13   2/13

$$
FLZ050-056-061-142-242-148-248-149-249-151-251-155-255-
160-260-271800-
WEST CENTRAL FLORIDA

CITY           SKY/WX    TMP DP  RH WIND       PRES   REMARKS
CRYSTAL RIVER  FAIR      90  63  40 SW9       29.93F
INVERNESS      FAIR      90  63  40 S10G16    29.94F
BROOKSVILLE    MOSUNNY   90  64  42 S10G21    29.95F
CLEARWATER AIR FAIR      86  68  54 S8        29.95F
ST PETE CLEARW MOSUNNY   88  66  48 S12       29.95F
TAMPA INTL     MOSUNNY   85  72  65 SW9       29.96F
TAMPA EXEC     MOSUNNY   91  63  38 S7        29.96F
PLANT CITY     SUNNY     91  64  40 S6        29.98F
MACDILL AFB    MOSUNNY   85  74  70 S7        29.95F
PETER O KNIGHT MOSUNNY   88  70  55 SW6       29.96F
ST PETERSBURG  SUNNY     82  69  64 S7        29.94F
SARASOTA       SUNNY     85  69  58 SW15      29.94F
VENICE         FAIR      84  73  70 S16       29.97S

STATION/POSITION SKY/WX   TEMP    WIND        PRES    WAVE   SWELL
                          AIR SEA DIR/SP/G            HT/PER HT/PER
                          (F)     (DEG/KT/KT) (MB)    (FT/S) (FT/S)
27.3N   84.2W                 74                N/A     3/ 6
CLEARWATER BEACH           80 78  190/ 12/ 16 1014.4F
MIDDLE TAMPA BAY           78     280/  7/  7 1014.7F
VENICE                     79 78  180/ 11/ 11 1014.3F

$$
FLZ066-069-070-075>078-162-262-165-265-271800-
SOUTHWEST FLORIDA AND KEYS

CITY           SKY/WX    TMP DP  RH WIND       PRES   REMARKS
PUNTA GORDA    SUNNY     91  69  48 SW7       29.97F HX  96
FT MYERS       MOSUNNY   88  72  58 VRB5      29.95F
SOUTHWEST INTL MOSUNNY   87  68  52 CALM      29.95F
NAPLES         MOSUNNY   87  73  62 SW13      29.96S
MARCO ISLAND   MOSUNNY   86  73  66 S9        29.97F
IMMOKALEE        N/A     90  70  51 S8        29.95F HX  95
MARATHON       SUNNY     86  76  71 VRB5      29.97F HX  96
KEY WEST NAS   MOSUNNY   84  73  69 SE12      29.96F
KEY WEST INTL  MOSUNNY   83  75  77 SE10      29.97S

STATION/POSITION SKY/WX   TEMP    WIND        PRES    WAVE   SWELL
                          AIR SEA DIR/SP/G            HT/PER HT/PER
                          (F)     (DEG/KT/KT) (MB)    (FT/S) (FT/S)
NAPLES                        77  190/ 10/ 12 1014.7S
26.0N   85.6W              80     170/ 10/ 14 1012.5R   5/ 6   3/ 6
DRY TORTUGAS               79     130/ 11/ 12 1014.4R
SAND KEY                   79     120/  8/ 13 1015.2S
LONG KEY                   81 81  190/  6/  7 1015.2F
MOLASSES REEF              80 79  180/  5/  6 1015.7F

$$
FLZ067-068-071>074-168-172>174-271800-
SOUTHEAST FLORIDA

CITY           SKY/WX    TMP DP  RH WIND       PRES   REMARKS
W PALM BEACH   PTSUNNY   86  72  62 SE17      29.99F
FT LAUDER-EXEC MOSUNNY   89  71  55 SE13      29.98S HX  95
FT LAUDERDALE  MOSUNNY   86  74  67 SE15      29.97F
POMPANO BEACH  MOSUNNY   86  75  69 SE17      29.98S HX  95
PEMBROKE PINES PTSUNNY   88  72  58 SE13      29.99S
OPA LOCKA      PTSUNNY   84  72  67 SE12      29.98S
MIAMI          MOSUNNY   87  74  64 SE12      29.98S HX  95
WEST KENDALL   MOSUNNY   89  73  59 E12       29.97S HX  97
HOMESTEAD      DRIZZLE   87  76  69 SE13      29.97S HX  97

STATION/POSITION SKY/WX   TEMP    WIND        PRES    WAVE   SWELL
                          AIR SEA DIR/SP/G            HT/PER HT/PER
                          (F)     (DEG/KT/KT) (MB)    (FT/S) (FT/S)
PORT EVERGLADES            81     140/  9/ 11 1015.6R
VIRGINIA KEY               81 79  120/  9/ 12 1014.6F
LAKE WORTH                 79 79  140/ 11/ 12 1016.7R
FOWEY ROCKS                82 78  170/ 10/ 10 1016.0S
SETTLEMENT POINT           80     150/ 14/ 17 1016.0F

$$





USA.gov is the U.S. government's official web portal to all federal, state and local government web resources and services.